This is the latest recevied weather packets stored in our database for station/object K3MV-13. If no packets are shown the sender has not sent any weather packets the latest 10 day(s).
| Time | Temp. | Humidity | Pressure | Rain* | Wind** | Luminosity | Snow |
|---|---|---|---|---|---|---|---|
| 1777941643 | 17.22° C | 57% | 1009.7 hPa | 0 mm | - | 0 W/m² | - |
| 1777941340 | 17.22° C | 56% | 1009.9 hPa | 0 mm | - | 0 W/m² | - |
| 1777941037 | 17.22° C | 55% | 1009.5 hPa | 0 mm | - | 0 W/m² | - |
| 1777940738 | 17.22° C | 57% | 1009.8 hPa | 0 mm | - | 0 W/m² | - |
| 1777940437 | 17.22° C | 57% | 1009.8 hPa | 0 mm | - | 1 W/m² | - |
| 1777940134 | 17.22° C | 56% | 1009.8 hPa | 0 mm | - | 2 W/m² | - |
| 1777939831 | 17.78° C | 56% | 1010.1 hPa | 0 mm | - | 3 W/m² | - |
| 1777939529 | 17.78° C | 55% | 1010 hPa | 0 mm | - | 4 W/m² | - |
| 1777939226 | 17.78° C | 55% | 1009.9 hPa | 0 mm | - | 4 W/m² | - |
| 1777938923 | 17.78° C | 55% | 1009.5 hPa | 0 mm | - | 6 W/m² | - |
| 1777938619 | 17.78° C | 55% | 1009.5 hPa | 0 mm | - | 10 W/m² | - |
| 1777938316 | 17.22° C | 56% | 1009.7 hPa | 0 mm | - | 10 W/m² | - |
| 1777938013 | 17.22° C | 56% | 1009.8 hPa | 0 mm | - | 15 W/m² | - |
| 1777937708 | 17.78° C | 55% | 1009.7 hPa | 0 mm | - | 18 W/m² | - |
| 1777937406 | 17.78° C | 55% | 1009.5 hPa | 0 mm | - | 19 W/m² | - |
| 1777937103 | 17.78° C | 54% | 1009.6 hPa | 0 mm | - | 28 W/m² | - |
| 1777936800 | 17.78° C | 56% | 1009.6 hPa | 0 mm | - | 33 W/m² | - |
| 1777936496 | 17.78° C | 54% | 1009.6 hPa | 0 mm | - | 47 W/m² | - |
| 1777936193 | 17.78° C | 59% | 1009.7 hPa | 0 mm | - | 50 W/m² | - |
| 1777935889 | 17.78° C | 61% | 1009.7 hPa | 0 mm | - | 57 W/m² | - |
| 1777935589 | 17.22° C | 61% | 1009.6 hPa | 0 mm | - | 78 W/m² | - |
| 1777935285 | 18.33° C | 60% | 1009.8 hPa | 0 mm | - | 53 W/m² | - |
| 1777934982 | 18.89° C | 52% | 1009.7 hPa | 0 mm | - | 25 W/m² | - |
| 1777934678 | 18.89° C | 50% | 1009.6 hPa | 0 mm | - | 27 W/m² | - |
| 1777934376 | 18.89° C | 51% | 1009.7 hPa | 0 mm | - | 55 W/m² | - |
* Rain latest hour (hover to see other rain measurements)
** Current wind speed in m/s (hover to see current wind gust speed)